Temperature
18 18 18 18 18 18 18 18 18 18 18 18 18 18 18 18 18 18 18 18 18 18 18 18 18 18 18 18 18 18 18 18 18 18 18 17 17 17 17 17 17 17 17
19 18 18 18 18 18 18 18 18 18 18 18 18 18 18 18 18 18 18 18 18 18 18 18 18 18 18 18 18 18 18 18 18 17 17 17 17 17 17 17 17 17 17
19 19 18 18 18 18 18 18 18 18 18 18 18 18 18 18 18 18 18 18 18 18 18 18 18 18 18 18 18 18 17 17 17 17 17 17 17 17 17 17 17 17 17
19 19 19 19 18 18 18 18 18 18 18 18 18 18 18 18 18 18 18 18 18 18 18 18 18 18 17 17 17 17 17 17 17 17 17 17 17 17 17 17 17 17 17
19 19 19 18 18 19 19 18 18 18 18 18 18 18 18 18 18 18 18 18 18 18 18 18 18 18 17 17 17 17 17 17 17 17 17 17 17 17 17 17 17 17 17
19 19 19 19 19 18 18 18 18 18 18 18 18 18 18 18 18 18 18 18 18 18 18 18 18 17 17 17 17 17 17 17 17 17 17 17 17 17 17 17 17 17 17
19 19 19 19 19 18 18 18 18 18 18 18 18 18 18 18 18 18 18 18 18 18 18 18 17 17 17 17 17 17 17 17 17 17 17 17 17 17 17 17 17 17 17
19 19 19 19 19 18 18 18 18 18 18 18 18 18 18 18 18 18 18 18 18 18 18 17 17 17 17 17 17 17 17 17 17 17 17 17 17 17 17 17 17 17 17
19 19 19 19 18 18 18 18 18 18 18 18 18 18 18 18 18 18 18 18 18 18 18 17 17 17 17 17 17 17 17 17 17 17 17 17 17 17 17 17 17 17 17
19 19 19 19 19 18 18 18 18 18 18 18 18 18 18 18 18 18 18 18 18 17 17 17 17 17 17 17 17 17 17 17 17 17 17 17 17 17 17 17 17 17 17
19 19 19 19 19 19 18 18 18 18 18 18 18 18 18 18 18 18 18 17 17 17 17 17 17 17 17 17 17 17 17 17 17 17 17 17 17 17 17 17 17 17 17
19 19 19 19 19 19 19 18 18 18 18 18 18 18 18 18 18 18 17 17 17 17 17 17 17 17 17 17 17 17 17 17 17 17 17 17 17 17 17 17 17 17 17
20 19 19 19 19 19 19 19 18 18 18 18 18 18 18 18 18 18 18 17 17 17 17 17 17 17 17 17 17 17 17 17 17 17 17 17 17 17 17 17 17 17 17
20 20 19 19 19 19 19 18 18 18 18 18 18 18 18 18 18 18 18 18 18 18 17 17 17 17 17 17 17 17 17 17 17 17 17 17 17 17 17 17 17 17 17
20 20 20 19 19 19 19 19 19 18 18 18 18 18 18 18 18 18 18 18 18 18 17 17 17 17 17 17 17 17 17 17 17 17 17 17 17 17 17 17 17 17 17
20 20 20 20 19 19 19 19 19 18 18 18 18 18 18 18 18 18 17 17 17 17 17 17 17 17 17 17 17 17 17 17 17 17 17 17 17 17 17 17 17 17 17
21 20 20 20 19 19 19 19 19 18 18 18 18 18 18 18 18 18 18 18 17 17 17 17 17 17 17 17 17 17 17 17 17 17 17 17 17 17 17 17 17 17 17
21 20 20 20 19 19 19 19 19 19 18 18 18 18 18 18 18 18 18 18 17 17 17 17 17 17 17 17 17 17 17 17 17 17 17 17 17 17 17 17 17 17 17
21 21 20 20 20 19 19 19 19 18 18 18 18 18 18 18 18 18 18 17 17 17 17 17 17 17 17 17 17 17 17 17 17 17 17 17 17 17 17 17 17 17 17
21 21 20 20 20 19 19 19 19 18 18 18 18 18 18 18 18 17 18 17 17 17 17 17 17 17 17 17 17 17 17 17 17 17 17 17 17 17 17 17 17 17 17
21 21 21 20 20 19 19 19 19 19 19 18 18 18 18 18 18 17 18 18 17 17 17 17 17 17 17 17 17 17 17 17 17 17 17 17 17 17 17 17 17 17 17
22 21 21 20 20 20 19 19 19 19 19 19 18 18 18 18 18 18 18 18 18 17 17 17 17 17 17 17 17 17 17 17 17 17 17 17 17 17 17 17 17 17 17
22 22 21 21 20 20 20 19 19 19 19 18 18 18 18 18 18 18 18 18 18 18 18 17 17 17 17 17 17 17 17 17 17 17 17 17 17 17 17 17 17 17 17
23 22 21 21 21 20 20 19 19 19 19 19 19 18 18 18 18 18 18 18 18 18 18 17 17 17 17 17 17 17 17 17 17 16 17 17 17 17 17 16 16 17 17
23 22 22 21 21 20 20 19 19 19 19 19 19 18 18 18 18 18 18 18 18 18 18 18 17 17 17 17 17 17 17 17 17 16 16 17 17 17 17 16 16 16 16
23 22 22 21 21 21 20 20 19 19 19 19 19 19 18 18 18 18 18 18 18 18 18 18 17 17 17 17 17 17 17 17 17 17 16 16 16 17 16 16 16 16 16
Wind_Speed
2 2 8 10 12 13 14 14 15 15 15 16 16 16 16 15 15 15 15 15 15 15 15 15 16 15 15 15 15 15 15 15 15 14 15 15 15 15 15 15 14 13 15
4 5 9 10 12 13 14 14 14 14 15 15 15 15 15 15 14 15 15 14 14 14 14 15 15 14 14 15 15 14 14 14 14 14 14 14 14 14 14 14 14 12 15
6 6 9 10 12 13 13 13 14 14 14 14 14 14 14 14 14 15 15 14 14 13 14 14 14 14 14 14 14 14 13 13 13 13 13 11 12 13 13 14 14 14 14
6 6 8 11 11 12 12 13 13 13 13 13 13 14 14 14 13 14 14 14 13 13 13 13 13 13 14 14 13 13 13 12 13 12 10 9 9 11 12 13 13 13 13
6 6 8 11 11 11 11 12 13 13 13 13 13 13 13 13 13 13 13 13 13 13 13 13 12 13 13 13 12 12 12 11 12 10 9 8 8 11 12 12 13 13 13
5 6 8 11 11 11 11 11 12 12 12 12 12 12 12 12 12 12 12 12 12 12 12 12 12 12 11 11 11 11 10 11 10 9 8 8 8 10 11 12 12 12 12
5 5 8 11 10 10 10 11 11 11 11 11 11 11 11 11 11 12 11 11 10 11 11 11 11 10 10 10 10 10 10 10 9 9 8 8 8 9 10 11 11 12 12
5 5 6 10 10 9 9 10 10 10 10 10 10 10 10 10 10 10 10 10 9 10 10 10 10 10 9 9 9 9 10 9 9 8 7 7 8 9 9 10 11 11 11
4 4 4 6 8 8 8 9 9 9 9 8 9 9 9 9 9 9 8 9 9 9 9 9 9 9 8 8 8 8 8 8 8 7 7 7 8 9 10 10 10 11 11
4 3 2 4 5 5 6 7 8 8 8 8 8 8 8 8 8 8 7 8 8 8 8 8 8 8 8 7 7 7 7 7 7 6 6 7 9 9 10 10 10 11 11
4 2 2 3 4 4 4 5 6 7 7 7 6 7 6 5 5 5 7 7 7 7 7 7 7 7 7 6 6 6 6 5 6 5 6 7 8 9 9 10 10 11 11
7 5 3 3 3 3 3 4 4 4 5 5 5 5 5 5 4 4 5 6 6 6 6 6 5 5 5 5 4 5 4 5 5 5 6 8 8 9 9 9 10 10 11
7 6 5 4 4 3 2 4 3 3 4 4 4 4 4 4 4 3 3 3 3 4 4 4 4 4 4 3 3 3 3 4 4 5 6 8 8 8 9 9 10 11 11
7 7 5 4 4 4 4 3 3 3 3 2 3 4 4 3 2 2 2 2 2 2 3 3 3 3 3 2 2 2 3 3 4 4 5 7 8 9 9 9 10 11 11
8 7 6 6 5 4 4 3 4 3 3 4 4 4 5 3 2 2 1 1 1 2 2 2 2 2 1 1 1 2 3 4 4 4 5 7 8 9 9 10 10 11 11
9 8 7 7 6 5 4 3 3 4 4 4 4 5 6 5 3 2 1 1 1 2 2 2 1 1 1 1 1 1 2 3 4 4 5 6 7 9 9 10 10 11 11
8 8 7 7 6 6 5 5 4 5 5 4 4 5 6 6 5 3 2 1 2 2 2 1 1 1 0 1 1 1 1 3 4 4 5 5 6 8 9 10 10 11 11
7 7 7 7 7 6 5 4 3 4 4 4 5 5 6 6 6 4 3 2 3 3 2 1 1 1 0 1 0 0 1 2 3 4 4 5 5 6 7 9 10 11 11
9 8 7 6 7 6 5 3 3 3 3 3 4 5 6 7 7 5 3 3 3 3 2 2 2 2 1 1 1 1 1 2 2 3 4 5 5 6 7 8 9 10 10
8 8 8 6 6 6 4 3 2 2 2 2 3 4 6 6 7 6 4 4 4 2 2 2 2 2 2 1 0 1 1 2 1 2 3 4 5 6 6 6 7 7 9
8 8 8 7 7 6 4 3 3 2 2 2 3 4 6 6 6 5 3 3 3 3 3 3 2 2 1 2 1 1 2 1 1 1 2 2 3 4 5 6 6 5 6
10 9 8 8 8 7 5 4 3 2 2 2 2 2 5 6 6 5 4 4 4 3 3 3 3 2 2 2 2 1 1 2 1 1 1 2 3 3 4 5 6 6 6
11 11 10 9 8 8 6 4 3 2 2 1 2 2 3 5 6 5 5 5 4 4 4 4 5 4 3 2 2 3 2 2 1 1 1 1 2 2 3 4 5 6 6
12 10 9 9 8 7 7 6 6 5 4 4 3 3 2 4 5 5 5 5 5 4 4 5 4 4 4 3 2 2 2 3 2 1 1 1 2 2 3 3 4 5 6
9 9 8 8 7 7 8 8 7 5 4 2 2 3 3 2 3 5 5 5 4 4 5 5 4 4 4 4 3 2 2 2 2 2 3 2 1 2 2 3 3 3 4
8 8 8 8 7 7 8 8 8 7 5 4 4 3 3 2 2 3 4 4 4 4 5 5 5 5 4 4 4 3 3 3 3 3 3 3 3 2 2 2 2 2 3
Wind_Direction
159 144 114 110 109 109 109 108 108 110 113 115 118 121 121 121 121 122 121 120 120 121 122 121 121 122 123 122 121 119 119 119 121 122 122 123 123 123 124 122 120 120 120
147 144 125 118 116 113 112 110 109 110 112 115 117 120 122 123 122 123 122 122 121 121 122 122 122 125 124 122 121 121 122 123 125 125 124 124 126 126 125 125 125 127 124
130 134 130 125 119 116 116 115 114 114 115 117 119 118 122 123 124 123 123 122 122 122 123 123 124 125 124 122 122 121 121 123 126 124 119 120 128 131 131 131 130 128 126
128 127 129 126 120 118 119 120 121 120 120 120 119 118 120 123 124 123 122 121 123 122 121 122 125 126 125 123 121 120 120 121 121 118 114 117 126 132 133 133 131 130 128
122 128 137 129 126 121 119 125 125 124 123 122 121 121 121 121 122 124 121 120 121 122 122 124 126 125 125 124 124 122 124 127 122 117 115 115 122 134 137 136 134 132 130
124 136 142 133 129 126 123 124 127 126 126 125 125 126 125 125 125 125 124 121 121 123 124 125 126 124 125 126 129 130 130 129 123 119 120 123 129 137 140 140 139 136 135
135 141 145 137 135 132 130 128 127 128 128 128 128 128 126 126 128 128 126 124 124 125 125 124 125 126 124 124 131 134 133 130 127 128 131 133 138 142 142 141 142 139 139
132 134 144 143 142 141 138 135 133 132 131 131 132 131 129 129 130 130 129 127 126 125 123 122 123 123 124 123 127 132 132 134 133 135 139 144 147 147 146 144 146 144 144
115 115 127 141 146 146 144 142 139 136 133 132 133 134 134 133 132 131 132 133 131 129 127 127 127 124 121 120 124 130 131 134 137 139 147 151 154 153 153 153 154 153 152
111 110 114 122 126 134 145 148 144 140 136 135 136 136 136 136 135 136 139 138 136 133 131 131 130 127 123 120 124 129 131 130 138 145 153 163 166 166 163 162 163 161 161
159 145 133 125 127 135 148 153 145 140 135 131 131 132 122 108 113 125 138 142 144 141 138 131 129 129 121 114 118 125 127 137 147 156 167 173 176 178 175 173 171 170 170
185 187 174 158 152 152 155 125 115 113 115 113 108 104 103 104 112 117 131 143 144 143 136 129 125 117 108 100 98 106 126 147 158 168 179 184 187 189 185 181 179 178 177
185 187 184 178 171 166 148 130 122 118 120 123 125 120 118 107 99 95 89 90 98 108 97 95 91 94 101 108 101 107 143 155 172 178 186 191 193 194 192 190 186 184 185
178 190 189 179 174 178 166 154 151 146 144 152 158 148 134 120 111 112 101 81 78 86 85 87 95 92 92 99 118 134 158 172 180 187 197 201 202 201 200 198 193 190 193
185 190 189 183 183 177 169 175 169 171 174 180 178 173 168 161 154 149 135 117 120 123 117 107 102 97 89 81 139 158 165 181 188 196 207 213 211 208 207 204 202 200 202
191 189 183 186 187 177 180 183 174 179 179 181 188 192 188 185 179 169 166 167 174 165 158 138 132 114 115 124 133 157 176 194 203 205 213 221 219 214 213 213 212 210 209
190 185 183 186 182 182 186 189 180 177 177 184 194 203 201 197 189 178 174 187 205 182 162 150 136 108 125 124 129 151 180 204 210 213 215 219 224 221 220 219 219 218 217
180 182 186 187 179 183 183 180 171 175 177 188 194 202 208 202 194 178 176 197 193 171 164 157 147 118 80 125 147 270 234 224 224 222 221 224 229 228 224 223 224 223 221
182 181 183 183 176 178 175 164 156 165 185 197 198 201 205 202 196 186 187 192 178 166 170 177 154 154 172 183 219 265 264 248 237 226 222 227 232 231 227 227 228 227 227
178 178 182 181 173 162 151 135 125 142 180 194 199 209 205 203 198 189 190 191 177 168 178 169 164 156 170 173 179 351 313 277 258 231 229 226 224 224 227 231 228 228 229
175 179 184 182 176 162 157 163 164 187 190 197 211 215 207 201 196 187 191 183 180 185 192 176 162 162 174 149 113 14 354 350 283 251 235 228 229 225 226 232 227 230 235
186 188 188 190 184 181 180 172 167 162 178 194 211 216 214 203 200 198 189 191 189 185 184 181 167 163 186 173 152 124 331 338 359 310 252 231 232 223 226 232 227 229 233
193 194 195 194 190 187 176 146 121 98 87 145 213 221 221 208 205 199 192 190 191 187 196 197 184 179 194 202 181 164 176 231 285 318 287 251 238 231 238 237 232 232 232
200 194 192 189 188 186 173 172 172 178 191 207 201 209 225 216 208 205 198 194 196 195 201 207 197 191 183 205 204 207 199 177 186 270 298 274 256 246 244 244 242 235 229
191 187 187 182 184 183 181 183 184 192 196 191 183 200 223 228 216 210 202 196 203 206 207 205 198 197 195 200 199 193 196 194 194 205 255 271 278 256 247 242 240 237 234
179 180 180 179 188 185 186 186 190 194 190 188 197 205 222 228 226 214 208 202 203 207 212 211 207 205 206 206 205 198 191 189 198 198 226 251 266 270 262 252 241 236 238
Height
1514 1514 1514 1514 1515 1516 1516 1517 1518 1519 1520 1521 1523 1524 1525 1527 1528 1529 1531 1532 1534 1536 1537 1539 1541 1542 1544 1545 1547 1548 1549 1551 1552 1553 1554 1556 1557 1558 1559 1561 1562 1563 1564
1515 1515 1516 1516 1517 1518 1519 1519 1520 1521 1523 1524 1525 1526 1527 1529 1530 1531 1533 1534 1536 1538 1539 1541 1542 1544 1546 1547 1548 1550 1551 1552 1553 1555 1556 1557 1558 1560 1561 1562 1563 1564 1566
1516 1517 1517 1518 1519 1520 1521 1522 1523 1524 1525 1526 1527 1528 1529 1531 1532 1533 1535 1536 1538 1539 1541 1543 1544 1546 1547 1548 1550 1551 1552 1554 1555 1556 1557 1558 1560 1561 1562 1564 1565 1566 1567
1518 1519 1519 1520 1521 1522 1523 1524 1525 1526 1527 1528 1529 1530 1531 1532 1534 1535 1536 1538 1540 1541 1543 1544 1546 1547 1549 1550 1552 1553 1554 1555 1556 1557 1559 1560 1561 1563 1564 1565 1566 1568 1569
1519 1521 1521 1522 1524 1525 1525 1525 1527 1528 1529 1530 1531 1532 1533 1534 1535 1537 1538 1540 1541 1543 1544 1546 1547 1549 1550 1552 1553 1555 1556 1557 1558 1559 1560 1562 1563 1564 1565 1567 1568 1569 1570
1521 1523 1524 1525 1526 1527 1527 1528 1529 1530 1531 1532 1533 1534 1535 1537 1538 1539 1540 1542 1543 1545 1546 1548 1549 1550 1552 1553 1555 1556 1557 1558 1560 1561 1562 1563 1564 1566 1567 1568 1569 1570 1572
1523 1525 1526 1527 1528 1529 1530 1531 1531 1532 1533 1534 1535 1536 1538 1539 1540 1541 1542 1544 1545 1547 1548 1549 1551 1552 1553 1555 1556 1557 1558 1560 1561 1562 1564 1565 1566 1567 1568 1569 1570 1572 1573
1525 1527 1528 1529 1530 1531 1532 1533 1534 1534 1535 1536 1537 1538 1539 1541 1542 1543 1544 1546 1547 1548 1550 1551 1552 1554 1555 1556 1557 1559 1560 1561 1562 1564 1565 1566 1567 1568 1569 1570 1571 1573 1574
1527 1528 1530 1531 1532 1532 1533 1535 1536 1536 1537 1538 1539 1540 1541 1542 1544 1545 1546 1547 1548 1550 1551 1553 1554 1555 1556 1558 1559 1560 1561 1562 1563 1564 1566 1567 1568 1569 1570 1571 1572 1573 1574
1529 1530 1531 1532 1533 1534 1535 1536 1537 1538 1539 1540 1541 1542 1543 1544 1545 1546 1547 1548 1550 1551 1553 1554 1555 1557 1558 1559 1560 1561 1562 1563 1564 1565 1566 1567 1568 1569 1570 1572 1572 1573 1575
1530 1532 1533 1534 1535 1536 1537 1538 1539 1540 1541 1542 1543 1544 1544 1545 1546 1547 1549 1550 1551 1552 1554 1555 1557 1558 1559 1560 1561 1563 1564 1565 1565 1566 1567 1568 1569 1570 1571 1572 1573 1574 1575
1531 1532 1534 1535 1536 1537 1538 1540 1541 1542 1542 1543 1544 1545 1546 1547 1548 1548 1550 1551 1552 1554 1555 1557 1558 1559 1561 1562 1563 1564 1565 1565 1566 1567 1568 1568 1569 1570 1571 1572 1573 1574 1575
1532 1533 1535 1536 1538 1539 1540 1541 1542 1543 1544 1545 1546 1547 1547 1548 1549 1550 1551 1552 1554 1555 1556 1558 1559 1561 1562 1563 1564 1565 1566 1566 1567 1568 1568 1569 1570 1570 1571 1572 1573 1574 1575
1533 1534 1536 1537 1539 1540 1541 1542 1543 1544 1545 1546 1547 1548 1549 1550 1551 1552 1553 1554 1555 1556 1557 1559 1560 1562 1563 1564 1565 1565 1566 1567 1567 1568 1569 1569 1570 1570 1571 1572 1573 1574 1575
1533 1535 1537 1538 1539 1541 1542 1543 1544 1546 1547 1547 1548 1549 1550 1551 1552 1553 1554 1555 1556 1557 1558 1560 1561 1562 1563 1564 1565 1566 1566 1567 1567 1568 1569 1569 1570 1570 1571 1572 1572 1573 1574
1533 1535 1537 1538 1540 1541 1543 1544 1545 1547 1548 1548 1549 1550 1551 1552 1553 1554 1555 1556 1557 1558 1559 1560 1561 1563 1563 1564 1565 1566 1566 1567 1567 1568 1568 1569 1569 1570 1570 1571 1572 1572 1573
1533 1535 1537 1538 1540 1541 1543 1544 1546 1547 1548 1549 1550 1551 1552 1553 1554 1555 1556 1557 1558 1559 1560 1561 1561 1563 1563 1564 1565 1565 1566 1566 1567 1567 1568 1568 1569 1569 1570 1570 1571 1571 1572
1534 1535 1537 1538 1540 1542 1543 1544 1546 1547 1548 1549 1550 1551 1552 1553 1554 1555 1556 1557 1558 1559 1560 1561 1561 1562 1563 1564 1564 1565 1565 1566 1566 1567 1567 1567 1568 1568 1568 1569 1570 1570 1571
1533 1535 1537 1538 1540 1542 1543 1544 1546 1547 1548 1549 1550 1551 1552 1553 1554 1555 1556 1557 1558 1559 1560 1560 1561 1562 1563 1563 1564 1564 1564 1565 1565 1565 1566 1566 1566 1567 1567 1568 1568 1569 1569
1532 1534 1536 1538 1540 1541 1543 1544 1545 1547 1548 1549 1550 1551 1552 1553 1553 1554 1555 1556 1557 1558 1559 1560 1561 1561 1562 1562 1563 1563 1563 1563 1564 1564 1564 1564 1564 1565 1565 1566 1566 1567 1567
1531 1533 1535 1537 1539 1540 1542 1543 1544 1545 1547 1548 1549 1550 1551 1552 1553 1553 1554 1555 1556 1557 1558 1559 1560 1560 1561 1561 1562 1562 1562 1562 1561 1561 1562 1562 1562 1563 1563 1564 1564 1564 1564
1529 1531 1533 1535 1537 1539 1541 1542 1544 1545 1546 1547 1548 1549 1550 1551 1552 1552 1553 1554 1555 1556 1556 1557 1558 1559 1559 1560 1560 1560 1560 1560 1559 1559 1560 1560 1560 1560 1561 1561 1562 1562 1562
1527 1529 1531 1534 1536 1538 1540 1541 1542 1544 1545 1546 1547 1548 1549 1550 1550 1551 1552 1553 1553 1554 1555 1556 1556 1557 1557 1558 1558 1559 1559 1558 1558 1558 1558 1558 1558 1558 1559 1559 1559 1559 1559
1524 1527 1530 1532 1534 1536 1538 1540 1541 1542 1543 1544 1546 1547 1548 1548 1549 1550 1550 1551 1552 1553 1553 1554 1554 1555 1555 1555 1556 1556 1557 1557 1557 1556 1556 1556 1556 1556 1556 1556 1556 1556 1556
1522 1525 1528 1530 1532 1534 1536 1538 1539 1540 1542 1543 1544 1545 1546 1547 1547 1548 1549 1550 1550 1550 1551 1551 1552 1552 1553 1553 1553 1553 1554 1554 1554 1554 1553 1553 1553 1553 1553 1553 1553 1553 1553
1520 1523 1525 1527 1530 1532 1534 1535 1537 1538 1540 1541 1542 1543 1544 1545 1546 1546 1547 1548 1548 1548 1549 1549 1549 1550 1550 1550 1550 1551 1551 1551 1551 1551 1551 1550 1550 1550 1550 1550 1550 1550 1550